Regional Weather Roundup
Issued by NWS

Home | Current Version | Previous Version | Text Only | Print | Product List | Glossary On
Versions: 1 2 3 4 5 6 7 8 9 10 11 12 13 14 15 16 17 18 19 20 21 22 23 24 25 26 27 28 29 30 31 32 33 34 35 36 37 38 39 40 41 42 43 44 45 46 47 48 49 50
000
ASUS46 KPQR 261110
RWROR

OREGON REGIONAL WEATHER ROUNDUP
NATIONAL WEATHER SERVICE PORTLAND OR
400 AM PDT SAT JUL 26 2014

NOTE: "FAIR" INDICATES FEW OR NO CLOUDS BELOW 12,000 FEET WITH
NO SIGNIFICANT WEATHER AND/OR OBSTRUCTIONS TO VISIBILITY.

ORZ001>013-261200-
NORTHWEST OREGON


CITY           SKY/WX    TMP DP  RH WIND       PRES   REMARKS
ASTORIA        CLEAR     51  49  92 SE3       30.13S
NEWPORT        CLEAR     50  48  93 CALM      30.15R
PORTLAND       CLEAR     59  53  80 CALM      30.11S
VANCOUVER WA   CLEAR     59  52  77 NW3       30.10S
SCAPPOOSE      CLEAR     59  52  77 N5        30.10S
HILLSBORO      CLEAR     56  51  84 W3        30.10S
AURORA         CLEAR     58  53  84 NE6       30.11R
MCMINNVILLE    CLEAR     55  52  89 CALM      30.11S
SALEM          CLEAR     58  53  84 N5        30.09S
CORVALLIS      CLEAR     55  52  88 NW7       30.11R
EUGENE         CLEAR     52  49  89 CALM      30.09S
$$

ORZ021-028-261200-
SOUTHWEST OREGON


CITY           SKY/WX    TMP DP  RH WIND       PRES   REMARKS
NORTH BEND     CLEAR     54  54 100 CALM      30.11S
BROOKINGS      SUNNY     53  51  93 CALM      30.01F
ROSEBURG       CLEAR     58  52  80 CALM      30.07S
SEXTON SUMMIT  CLEAR     61  39  44 NE5       30.12F
MEDFORD        CLEAR     58  46  64 CALM      30.05S
$$

ORZ009-041-261200-
COLUMBIA GORGE


CITY           SKY/WX    TMP DP  RH WIND       PRES   REMARKS
TROUTDALE      CLEAR     54  52  93 CALM      30.10R
THE DALLES     CLEAR     62  52  69 CALM      30.04S
$$

ORZ029>031-042>050-061>064-261200-
EASTERN OREGON


CITY           SKY/WX    TMP DP  RH WIND       PRES   REMARKS
REDMOND        CLEAR     51  45  79 CALM      30.12S
BEND           SUNNY     54  45  71 CALM      30.15S
KLAMATH FALLS  CLEAR     48  41  76 CALM      30.13F
LAKEVIEW       CLEAR     57  36  44 N15       30.17S
HERMISTON      CLEAR     50  42  74 S5        30.03R
PENDLETON      CLEAR     58  41  53 SE7       30.05R
JOHN DAY       SUNNY     54  37  52 E7        30.15R
MEACHAM        CLEAR     38  36  92 CALM      30.15S
LA GRANDE      CLEAR     46  30  53 CALM      30.12R
BAKER CITY     CLEAR     47  40  76 CALM      30.14R
BURNS          CLEAR     47  33  58 W6        30.15R
ROME             N/A     56  29  35 NE7       30.12R
ONTARIO        CLEAR     65  36  34 NW7       30.06R
$$


USA.gov is the U.S. government's official web portal to all federal, state and local government web resources and services.